EHI
0 0 0 0 0 0 0 0 0 0 0 0 0 0 0 0 0 0 0 0 0 0 1 5 12 19 20 13 6 1 0 0 0 0 0 0 0 0 0 0 0 0 0 0
0 0 0 0 0 0 0 0 0 0 0 0 0 0 0 0 0 0 0 0 0 0 2 7 12 18 21 17 8 2 0 0 0 0 0 0 0 0 0 0 0 0 0 0
0 0 0 0 0 0 0 0 0 0 0 0 0 0 0 0 0 0 0 0 0 0 2 7 13 22 28 22 10 3 1 0 0 0 0 0 0 0 0 0 0 0 0 0
0 0 0 0 0 0 0 0 0 1 1 0 0 0 0 0 0 0 0 0 0 1 1 4 9 21 29 21 9 3 1 0 0 0 0 0 0 0 0 0 0 0 0 0
0 0 0 0 0 0 0 0 0 1 1 0 0 0 0 0 0 0 0 0 0 1 3 8 11 16 20 16 7 3 1 0 0 0 0 0 0 0 0 0 0 0 0 0
0 0 0 0 0 0 0 0 0 1 1 0 0 0 0 0 0 0 0 0 0 1 10 27 36 34 27 17 8 3 1 0 0 0 0 0 0 0 0 0 0 0 0 0
0 0 0 0 0 0 0 0 0 0 0 0 0 0 0 0 0 0 0 0 0 2 15 43 67 69 51 26 12 6 2 0 0 0 0 0 0 0 0 0 0 0 0 0
0 0 0 0 0 0 0 0 0 0 0 0 0 0 0 0 0 0 0 0 0 1 11 37 69 82 68 40 18 8 3 1 0 0 0 0 0 0 0 0 0 0 0 0
0 0 0 0 0 0 0 0 0 0 0 0 0 0 0 0 0 0 0 0 0 0 5 19 42 65 68 48 23 8 3 1 1 0 0 0 0 0 0 0 0 0 0 0
0 0 0 0 0 0 0 0 0 0 0 0 0 0 0 0 0 0 0 0 0 0 1 5 16 35 50 42 21 7 2 1 2 1 0 0 0 0 0 0 0 0 0 0
0 0 0 0 0 0 0 0 0 0 0 0 0 0 0 0 0 0 0 0 0 0 0 1 4 13 24 25 15 5 1 1 1 0 0 0 0 0 0 0 0 0 0 0
0 0 0 0 0 0 0 0 0 0 0 0 0 0 0 0 0 0 0 0 0 0 0 0 1 3 7 10 9 4 1 0 0 0 0 0 0 0 0 0 0 0 0 0
0 0 0 0 0 0 0 0 0 0 0 0 0 0 0 0 0 0 0 0 0 0 0 0 0 0 1 3 4 2 1 0 0 0 0 0 0 0 0 0 0 0 0 0
0 0 0 0 0 0 0 0 0 0 0 0 0 0 0 0 0 0 0 0 0 0 0 0 0 0 0 0 1 1 0 0 0 0 0 0 0 0 0 0 0 0 0 0
0 0 0 0 0 0 0 0 0 0 0 0 0 0 0 0 0 0 0 0 0 0 0 0 0 0 0 0 0 0 0 0 0 0 0 0 0 0 0 0 0 0 0 0
0 0 0 0 0 0 0 0 0 0 0 0 0 0 0 0 0 0 0 0 0 0 0 0 0 0 0 0 0 0 0 0 0 0 0 0 0 0 0 0 0 0 0 0
0 0 0 0 0 0 0 0 0 0 0 0 0 0 0 0 0 0 0 0 0 0 0 0 0 0 0 0 0 0 0 0 0 0 0 0 0 0 0 0 0 0 0 0
0 0 0 0 0 0 0 0 0 0 0 0 0 0 0 0 0 0 0 0 0 0 0 0 0 0 0 0 0 0 0 0 0 0 0 0 0 0 0 0 0 0 0 0
0 0 0 0 0 0 0 0 0 0 0 0 0 0 0 0 0 0 0 0 0 0 0 0 0 0 0 0 0 0 0 0 0 0 0 0 0 0 0 0 0 0 0 0
0 0 0 0 0 0 0 0 0 0 0 0 0 0 0 0 0 0 0 0 0 0 0 0 0 0 0 0 0 0 0 0 0 0 0 0 0 0 0 0 0 0 0 0
0 0 0 0 0 0 0 0 0 0 0 0 0 0 0 0 0 0 0 0 0 0 0 0 0 0 0 0 0 0 0 0 0 0 0 0 0 0 0 0 0 0 0 0
0 0 0 0 0 0 0 0 0 0 0 0 0 0 0 0 0 0 0 0 0 0 0 0 0 0 0 0 0 0 0 0 0 0 0 0 0 0 0 0 0 0 0 0
0 0 0 0 0 0 0 0 0 0 0 0 0 0 0 0 0 0 0 0 0 0 0 0 0 0 0 0 0 0 0 0 0 0 0 0 0 0 0 0 0 0 0 0
0 0 0 0 0 0 0 0 0 0 0 0 0 0 0 0 0 0 0 0 0 0 0 0 0 0 0 0 0 0 0 0 0 0 0 0 0 0 0 0 0 0 0 0
0 0 0 0 0 0 0 0 0 0 0 0 0 0 0 0 0 0 0 0 0 0 0 0 0 0 0 0 0 0 0 0 0 0 0 0 0 0 0 0 0 0 0 0
0 0 0 0 0 0 0 0 0 0 0 0 0 0 0 0 0 0 0 0 0 0 0 0 0 0 0 0 0 0 0 0 0 0 0 0 0 0 0 0 0 0 0 0
0 0 0 0 0 0 0 0 0 0 0 0 0 0 0 0 0 0 0 0 0 0 0 0 0 0 0 0 0 0 0 0 0 0 0 0 0 0 0 0 0 0 0 0
Wind_Speed
14 17 19 20 19 17 16 16 17 17 17 15 13 13 11 11 12 13 12 11 7 4 3 2 3 4 5 5 5 5 5 5 4 3 2 1 2 1 1 1 1 1 3 4
17 19 20 20 17 15 12 12 12 13 14 14 13 12 12 13 14 16 15 12 8 5 3 3 4 4 5 4 4 5 5 5 5 5 4 2 2 2 2 1 1 2 3 4
16 18 18 15 11 8 8 10 12 14 14 15 13 14 14 14 15 17 13 10 8 6 4 3 4 4 4 4 5 5 5 5 6 7 5 4 3 3 3 2 2 3 6 7
13 16 16 10 10 11 10 9 15 15 15 16 16 16 14 13 12 12 13 12 10 7 6 5 5 6 6 6 5 5 5 6 7 8 7 5 3 3 3 3 3 4 6 7
10 14 14 11 12 11 9 7 18 17 18 19 21 19 15 17 18 16 16 12 9 9 8 6 5 6 6 6 6 6 6 6 8 9 8 7 5 4 3 4 4 4 6 6
10 14 14 10 15 12 9 4 19 20 20 20 20 15 14 20 21 20 19 15 12 10 8 6 6 6 6 7 7 7 6 7 9 10 10 9 6 5 4 5 4 4 5 6
12 12 4 13 15 13 7 10 20 21 20 20 17 15 18 22 21 20 18 18 17 14 8 6 6 7 8 7 7 7 6 7 9 10 10 9 7 5 5 5 4 4 6 5
7 9 4 19 13 10 9 13 16 17 18 19 20 21 23 24 23 23 22 20 19 16 13 8 7 8 9 9 7 6 6 7 9 10 11 11 9 7 6 6 6 5 5 5
6 6 8 12 11 8 9 11 12 13 15 16 19 20 21 23 23 22 21 20 18 16 15 14 9 8 11 9 7 6 6 7 8 10 9 8 11 10 8 6 6 6 6 6
6 9 7 12 12 11 11 11 13 14 15 14 15 16 17 18 19 21 19 18 17 17 16 15 14 10 10 9 8 7 7 7 8 8 8 8 9 9 9 9 7 6 7 6
7 8 9 11 13 13 14 15 16 17 17 18 18 19 18 15 15 15 17 16 15 14 15 14 14 15 13 11 9 9 8 8 9 9 9 9 9 7 8 7 7 8 7 6
5 7 8 11 13 15 16 17 19 21 22 20 20 22 21 17 14 14 15 15 15 16 16 15 12 14 14 11 11 10 9 9 9 8 8 8 8 7 6 3 7 11 9 8
4 7 10 14 16 18 20 22 23 23 22 21 21 20 20 18 17 17 16 16 17 17 17 16 13 12 13 13 12 12 10 9 9 9 10 10 10 10 8 6 7 7 13 15
7 10 14 17 19 21 23 24 24 23 22 21 20 19 19 18 17 17 18 17 18 18 18 17 15 12 10 13 13 13 13 12 10 9 9 10 10 10 10 10 8 6 6 14
11 13 17 21 22 23 23 24 24 23 22 21 19 18 18 18 18 18 18 19 19 18 17 16 17 13 9 12 14 15 14 11 10 9 9 9 9 10 10 11 11 11 9 6
17 19 21 22 24 25 26 26 25 25 23 22 20 19 18 18 18 18 18 18 19 19 16 14 15 14 9 10 13 12 12 14 12 9 9 9 9 9 9 9 9 10 12 11
20 22 23 24 25 26 26 25 25 25 24 23 22 22 20 19 19 18 18 18 18 18 16 14 13 12 10 9 10 10 11 12 12 10 9 9 9 9 8 9 10 10 11 13
21 22 23 24 24 25 25 25 24 25 24 24 24 23 22 20 19 18 18 18 19 19 16 13 10 10 10 9 8 9 10 10 10 10 7 8 8 8 9 10 11 12 10 13
23 23 24 24 24 23 23 23 23 23 23 23 23 23 22 22 20 19 18 18 19 19 16 12 9 9 10 10 9 8 9 10 10 10 8 9 10 9 9 10 11 12 11 12
23 23 24 25 24 23 23 22 22 22 22 23 23 23 22 22 21 20 19 17 15 14 13 12 10 8 8 9 9 7 9 9 10 11 10 10 11 10 9 10 11 11 11 12
24 25 26 25 24 23 22 22 21 21 22 22 22 22 22 22 20 19 16 15 15 14 13 12 8 7 5 7 8 7 8 8 8 11 11 11 11 11 10 10 11 11 11 11
24 24 25 24 23 22 20 19 20 22 22 22 23 23 22 20 19 18 18 14 14 13 11 10 8 4 4 7 6 6 8 7 6 9 10 10 10 11 10 10 10 10 11 11
22 23 23 23 22 21 22 20 22 22 23 24 23 22 20 17 13 12 13 11 11 11 10 9 6 3 4 6 6 7 8 8 7 9 10 10 10 10 10 10 10 10 9 10
22 22 22 21 20 20 21 22 23 20 22 23 20 20 17 13 10 10 11 12 13 14 11 8 6 6 5 5 5 6 7 7 7 9 10 11 10 10 10 9 9 9 9 11
21 21 21 20 18 15 17 21 23 22 21 17 20 18 13 8 9 9 9 11 12 11 10 8 8 8 6 6 6 6 7 7 7 8 9 10 11 11 10 10 9 9 9 9
19 17 15 14 13 11 12 14 16 16 17 16 15 13 10 7 7 8 8 10 12 11 9 6 5 6 6 6 6 7 6 6 8 9 9 10 13 12 11 11 12 10 9 9
19 16 13 14 13 13 13 15 16 18 17 17 16 13 10 7 6 6 7 7 7 6 5 4 4 4 4 5 6 6 6 6 7 7 7 8 9 10 11 12 10 9 9 9
Wind_Direction
294 297 295 291 289 290 288 288 288 295 303 321 346 350 353 350 343 332 323 312 299 278 264 259 259 252 254 245 237 237 229 227 215 196 186 152 124 130 140 308 355 25 59 55
290 290 292 292 290 290 293 301 309 320 327 346 351 356 359 353 339 325 314 310 308 304 289 261 245 249 250 240 231 228 233 227 201 189 189 173 164 162 151 159 155 137 109 81
290 297 298 294 304 310 308 316 333 334 343 356 359 360 353 340 324 317 316 321 319 308 288 250 232 230 233 232 228 227 230 218 192 187 187 185 190 157 148 149 132 103 92 87
284 289 283 291 357 351 335 3 8 2 3 358 350 342 331 328 339 342 332 320 311 301 290 261 228 217 215 221 223 226 223 208 191 184 182 184 179 153 159 131 106 98 99 98
287 289 295 331 21 11 351 10 29 4 354 349 342 330 327 342 339 327 317 302 285 273 266 258 239 226 219 215 216 226 223 201 188 184 181 180 179 168 152 129 128 123 116 112
271 287 296 353 1 352 315 298 18 1 354 350 348 336 330 333 328 327 326 315 298 278 257 236 226 220 221 221 213 218 215 193 183 182 181 182 181 175 159 144 156 145 131 129
258 264 258 21 1 354 339 351 359 359 356 351 344 330 325 330 330 329 328 328 330 317 278 231 213 206 215 225 223 214 205 185 179 182 184 183 179 178 166 164 164 155 143 141
303 294 338 15 30 37 2 349 354 354 352 346 337 333 333 330 328 328 330 331 335 335 321 276 222 207 212 219 220 213 201 185 178 179 190 187 180 181 178 172 159 152 150 148
27 64 80 50 56 35 8 354 347 342 340 336 331 330 329 327 324 324 327 327 330 332 330 314 272 223 218 214 209 216 204 185 177 183 197 180 178 182 179 176 175 172 172 170
64 77 77 55 33 13 356 338 328 323 318 314 310 309 311 312 313 315 318 321 324 328 327 328 315 268 230 216 205 210 206 182 175 180 184 178 180 184 185 184 184 185 185 179
37 11 352 8 359 343 331 322 315 309 303 300 298 297 296 294 295 300 307 311 314 316 320 320 326 306 258 221 209 209 203 184 178 179 176 175 181 183 190 188 188 188 190 174
10 2 327 318 316 309 303 299 298 299 302 306 309 308 308 305 303 302 303 307 310 313 314 317 317 317 295 244 212 205 202 188 185 180 175 173 168 147 60 109 165 183 170 155
332 310 295 291 290 288 288 291 297 300 304 306 303 301 300 299 299 300 302 306 308 308 309 309 311 314 314 280 232 208 203 190 188 182 176 176 171 165 149 94 75 120 143 140
294 288 288 291 293 294 293 293 293 291 290 289 290 292 294 295 299 302 303 302 300 300 301 303 305 307 322 307 262 220 206 196 190 184 177 178 173 171 168 162 154 129 116 134
287 283 286 292 294 296 299 300 302 302 301 298 294 292 294 297 301 302 304 304 300 295 296 301 304 304 311 319 281 234 209 200 193 185 178 178 175 174 174 173 172 160 141 132
297 299 302 306 311 314 316 316 315 313 311 308 304 298 294 293 294 297 300 302 300 297 295 295 296 299 301 312 292 243 212 202 188 186 181 176 177 181 176 174 173 166 163 161
312 317 322 323 321 320 319 319 317 316 315 312 309 305 299 293 291 292 296 299 298 294 289 285 288 296 297 301 291 247 216 200 190 191 185 179 180 184 179 175 173 170 170 167
323 323 322 321 321 320 320 321 320 317 314 311 310 307 302 297 294 294 295 298 297 292 285 280 284 298 300 300 282 240 217 198 189 192 186 180 177 181 180 176 176 174 171 163
326 323 322 322 322 320 319 316 314 314 314 314 313 310 308 304 301 298 297 297 297 293 287 283 281 285 291 292 281 242 218 201 182 188 191 181 180 184 182 178 177 176 173 165
322 322 322 322 322 319 316 316 317 316 315 315 313 309 306 304 302 300 297 293 288 288 290 288 280 277 289 292 284 245 216 205 188 186 193 190 188 188 184 180 180 180 180 174
322 322 322 321 320 320 319 318 318 316 315 312 307 302 299 296 294 292 290 288 289 290 292 287 271 268 287 297 280 245 216 205 194 187 193 192 186 188 190 185 183 185 187 183
322 320 319 319 320 321 322 323 320 318 314 309 304 299 295 291 289 286 281 278 281 283 281 280 273 267 299 299 270 236 213 204 202 196 195 190 184 187 190 187 186 189 190 187
320 319 319 320 323 326 327 327 325 320 314 309 304 298 292 285 281 277 277 276 278 283 281 278 275 246 286 284 257 227 208 206 214 208 194 188 185 186 191 190 188 190 189 187
320 322 322 324 331 332 331 329 324 317 311 307 302 298 293 287 277 267 265 270 270 275 275 272 245 235 253 260 245 222 208 213 223 213 194 187 186 186 192 195 188 187 190 190
324 324 326 333 337 336 333 325 319 316 314 311 308 306 300 283 274 273 272 274 276 275 273 262 233 234 243 243 226 217 210 216 226 218 194 184 187 188 191 196 195 193 195 197
327 325 331 336 340 336 328 320 316 315 315 315 315 314 309 295 278 270 265 265 266 265 266 262 239 230 233 228 214 210 212 220 230 228 200 181 185 189 191 194 197 198 199 202
328 331 333 336 338 336 327 321 318 319 320 322 324 321 320 315 302 289 282 278 278 272 263 249 234 223 219 215 208 206 212 228 232 220 199 183 182 187 191 191 196 198 199 201